Weather in Druzhinino

Russia / Sverdlovsk Oblast     56°47′20″N   59°31′04″E
temp.,
°C
wind,
m/s
gust,
m/s
humid.,
%
clouds,
%
prec.,
mm/h
press.,
hPa
HPBL,
m
21 april, wed
wed2123:00−1wnw11760 0.0 103210
02:00−2wsw11810 0.0 103210
05:00−2wsw11824 0.0 103310
08:00+2w12631 0.0 1033177
11:00+8nw23460 0.0 1032862
14:00+11nw00380 0.0 10311155
17:00+12s113644 0.0 10311345
20:00+7sse225883 0.0 103111
22 april, thu
thu2223:00+4sse2266100 0.0 103323
02:00+3se227274 0.0 103226
05:00+2sse2572100 0.0 103379
08:00+5s2559100 0.0 1032147
11:00+9s3644100 0.0 1032678
14:00+9ssw4745100 0.0 10321122
17:00+8wsw4656100 0.0 1032891
20:00+6ssw376790 0.0 1032314
23 april, fri
fri2323:00+4se1179100 0.0 103210
02:00+4s1179100 0.0 103229
05:00+3ssw2490100 0.6 1032190
08:00+4s2787100 0.8 1032563
11:00+5s3684100 0.9 1031789
14:00+7sw357160 0.3 1030990
17:00+7wsw2377100 0.3 1030835
20:00+5w119066 0.1 103022
24 april, sat
sat2423:00+4ene1195100 0.1 102912
02:00+4e2691100 0.0 1028201
05:00+4ese2692100 0.0 1026163
08:00+5e1597100 0.8 1024223
11:00+6se3695100 1.3 1023887
14:00+6sse3792100 0.3 1022792
17:00+6ese4886100 0.6 1021783
20:00+6e4990100 0.0 1019469
25 april, sun
sun2523:00+5sse3985100 0.1 1018493
02:00+3ese3896100 0.2 1017666
05:00+2ese4997100 1.1 1016526
08:00+4ese498491 0.1 1015565
11:00+8se466382 0.1 1013971
14:00+9se4664100 0.0 10121361
17:00+8s3669100 0.3 10121067
20:00+5wsw41089100 1.9 1013913